TimeEST,TemperatureF,Dew PointF,Humidity,Sea Level PressureIn,VisibilityMPH,Wind Direction,Wind SpeedMPH,Gust SpeedMPH,PrecipitationIn,Events,Conditions,WindDirDegrees,DateUTC
12:53 AM,28.9,23.0,78,30.23,10.0,Calm,Calm,-,N/A,,Clear,0,2011-11-07 05:53:00
1:53 AM,30.9,26.1,82,30.23,10.0,SSW,4.6,-,N/A,,Clear,210,2011-11-07 06:53:00
2:53 AM,37.0,27.0,67,30.21,10.0,South,5.8,-,N/A,,Clear,190,2011-11-07 07:53:00
3:53 AM,42.1,27.0,55,30.20,10.0,SSW,5.8,-,N/A,,Clear,210,2011-11-07 08:53:00
4:53 AM,42.1,28.0,58,30.20,10.0,SSW,9.2,-,N/A,,Clear,210,2011-11-07 09:53:00
5:53 AM,45.0,28.9,53,30.20,10.0,SSW,8.1,-,N/A,,Clear,210,2011-11-07 10:53:00
6:53 AM,48.0,28.9,48,30.20,10.0,SSW,11.5,-,N/A,,Clear,210,2011-11-07 11:53:00
7:53 AM,51.8,30.2,44,30.19,10.0,SW,12.7,-,N/A,,Partly Cloudy,220,2011-11-07 12:53:00
8:53 AM,54.0,32.0,43,30.20,10.0,SW,9.2,18.4,N/A,,Overcast,220,2011-11-07 13:53:00
9:53 AM,53.6,33.8,47,30.19,10.0,SW,13.8,23.0,N/A,,Overcast,220,2011-11-07 14:53:00
10:53 AM,57.0,36.0,45,30.19,10.0,SW,12.7,-,N/A,,Mostly Cloudy,230,2011-11-07 15:53:00
11:53 AM,57.0,37.0,47,30.17,10.0,SW,16.1,-,N/A,,Overcast,220,2011-11-07 16:53:00
12:53 PM,61.0,39.9,46,30.14,10.0,SW,20.7,25.3,N/A,,Clear,220,2011-11-07 17:53:00
1:53 PM,62.1,41.0,46,30.12,10.0,SSW,20.7,25.3,N/A,,Clear,200,2011-11-07 18:53:00
2:53 PM,62.1,42.1,48,30.11,10.0,SW,16.1,-,N/A,,Clear,220,2011-11-07 19:53:00
3:53 PM,60.8,42.8,52,30.10,10.0,SW,11.5,21.9,N/A,,Clear,220,2011-11-07 20:53:00
4:53 PM,57.0,42.1,57,30.13,10.0,SW,11.5,-,N/A,,Clear,220,2011-11-07 21:53:00
5:53 PM,55.4,42.8,63,30.13,10.0,SW,11.5,23.0,N/A,,Clear,220,2011-11-07 22:53:00
6:53 PM,55.9,43.0,62,30.14,10.0,SW,13.8,21.9,N/A,,Clear,220,2011-11-07 23:53:00
7:53 PM,55.9,42.1,60,30.14,10.0,SW,17.3,24.2,N/A,,Clear,220,2011-11-08 00:53:00
8:53 PM,55.4,42.8,63,30.16,10.0,SW,12.7,20.7,N/A,,Clear,230,2011-11-08 01:53:00
9:53 PM,54.0,44.1,69,30.19,10.0,SW,13.8,20.7,N/A,,Mostly Cloudy,230,2011-11-08 02:53:00
10:53 PM,52.0,44.1,74,30.20,10.0,SW,9.2,-,N/A,,Partly Cloudy,230,2011-11-08 03:53:00
11:53 PM,51.1,45.0,80,30.22,10.0,SW,8.1,-,N/A,,Mostly Cloudy,230,2011-11-08 04:53:00